EN

Hourly Weather Almensilla

Today, 21 January, Thursday

Time Temperature Precipitation Wind Pressure Humidity
00:00 +11°C° 0 mm 3 mps 759 mmHg 90%
01:00 +11°C° 0 mm 3 mps 759 mmHg 91%
02:00 +10°C° 0 mm 3 mps 759 mmHg 92%
03:00 +10°C° 0 mm 2 mps 759 mmHg 92%
04:00 +10°C° 0.1 mm 2 mps 759 mmHg 93%
05:00 +10°C° 0.1 mm 2 mps 760 mmHg 93%
06:00 +10°C° 0.1 mm 2 mps 760 mmHg 93%
07:00 +12°C° 0 mm 2 mps 760 mmHg 92%
08:00 +12°C° 0 mm 2 mps 760 mmHg 91%
09:00 +13°C° 0 mm 2 mps 761 mmHg 91%
10:00 +14°C° 0.1 mm 4 mps 761 mmHg 85%
11:00 +15°C° 0.1 mm 5 mps 761 mmHg 80%
12:00 +17°C° 0.1 mm 6 mps 761 mmHg 74%
13:00 +17°C° 0.1 mm 7 mps 761 mmHg 74%
14:00 +17°C° 0.1 mm 8 mps 760 mmHg 74%
15:00 +17°C° 0.1 mm 9 mps 759 mmHg 74%
16:00 +16°C° 0.1 mm 7 mps 760 mmHg 78%
17:00 +15°C° 0.1 mm 6 mps 760 mmHg 83%
18:00 +14°C° 0.1 mm 5 mps 760 mmHg 87%
19:00 +14°C° 0 mm 6 mps 760 mmHg 87%
20:00 +14°C° 0 mm 6 mps 760 mmHg 87%
21:00 +14°C° 0 mm 6 mps 760 mmHg 88%
22:00 +14°C° 0.2 mm 7 mps 759 mmHg 88%
23:00 +13°C° 0.2 mm 8 mps 759 mmHg 88%

Tomorrow, 22 January, Friday

Time Temperature Precipitation Wind Pressure Humidity
00:00 +15°C° 0.2 mm 9 mps 759 mmHg 89%
01:00 +15°C° 0.6 mm 8 mps 758 mmHg 89%
02:00 +15°C° 0.6 mm 8 mps 758 mmHg 90%
03:00 +15°C° 0.6 mm 8 mps 757 mmHg 91%
04:00 +15°C° 0.1 mm 7 mps 758 mmHg 91%
05:00 +14°C° 0.1 mm 7 mps 758 mmHg 91%
06:00 +14°C° 0.1 mm 6 mps 758 mmHg 91%
07:00 +14°C° 0 mm 6 mps 758 mmHg 88%
08:00 +14°C° 0 mm 6 mps 759 mmHg 86%
09:00 +14°C° 0 mm 6 mps 759 mmHg 83%
10:00 +14°C° 0 mm 7 mps 760 mmHg 77%
11:00 +15°C° 0 mm 7 mps 760 mmHg 71%
12:00 +15°C° 0 mm 8 mps 760 mmHg 65%
13:00 +15°C° 0 mm 7 mps 760 mmHg 65%
14:00 +15°C° 0 mm 7 mps 760 mmHg 65%
15:00 +15°C° 0 mm 7 mps 759 mmHg 65%
16:00 +14°C° 0 mm 6 mps 760 mmHg 67%
17:00 +13°C° 0 mm 5 mps 760 mmHg 70%
18:00 +12°C° 0 mm 4 mps 760 mmHg 72%
19:00 +11°C° 0 mm 3 mps 761 mmHg 75%
20:00 +11°C° 0 mm 3 mps 762 mmHg 78%
21:00 +10°C° 0 mm 3 mps 762 mmHg 80%
22:00 +10°C° 0 mm 3 mps 762 mmHg 82%
23:00 +9°C° 0 mm 3 mps 763 mmHg 85%

Day after tomorrow, 23 January, Saturday

Time Temperature Precipitation Wind Pressure Humidity
00:00 +9°C° 0 mm 2 mps 763 mmHg 87%
01:00 +9°C° 0 mm 2 mps 763 mmHg 87%
02:00 +9°C° 0 mm 2 mps 763 mmHg 86%
03:00 +9°C° 0 mm 2 mps 762 mmHg 86%
04:00 +9°C° 0 mm 2 mps 762 mmHg 86%
05:00 +10°C° 0 mm 2 mps 762 mmHg 86%
06:00 +10°C° 0 mm 2 mps 762 mmHg 86%
07:00 +10°C° 0 mm 2 mps 762 mmHg 85%
08:00 +12°C° 0 mm 2 mps 762 mmHg 84%
09:00 +11°C° 0 mm 3 mps 762 mmHg 83%
10:00 +12°C° 0 mm 4 mps 762 mmHg 78%
11:00 +14°C° 0 mm 5 mps 762 mmHg 73%
12:00 +15°C° 0 mm 6 mps 761 mmHg 68%
13:00 +15°C° 0 mm 6 mps 761 mmHg 68%
14:00 +15°C° 0 mm 7 mps 760 mmHg 68%
15:00 +15°C° 0 mm 7 mps 759 mmHg 68%
16:00 +15°C° 0 mm 7 mps 759 mmHg 72%
17:00 +14°C° 0 mm 7 mps 759 mmHg 75%
18:00 +14°C° 0 mm 7 mps 759 mmHg 79%
19:00 +14°C° 0.1 mm 7 mps 759 mmHg 81%
20:00 +13°C° 0.1 mm 8 mps 758 mmHg 83%
21:00 +13°C° 0.1 mm 8 mps 758 mmHg 86%
22:00 +13°C° 0.3 mm 8 mps 758 mmHg 87%
23:00 +15°C° 0.3 mm 8 mps 758 mmHg 87%

24 January, Sunday

Time Temperature Precipitation Wind Pressure Humidity
00:00 +15°C° 0.3 mm 8 mps 758 mmHg 88%
01:00 +15°C° 0.1 mm 7 mps 758 mmHg 89%
02:00 +15°C° 0.1 mm 7 mps 758 mmHg 89%
03:00 +14°C° 0.1 mm 6 mps 757 mmHg 89%
04:00 +14°C° 0 mm 5 mps 757 mmHg 90%
05:00 +14°C° 0 mm 4 mps 758 mmHg 90%
06:00 +14°C° 0 mm 4 mps 758 mmHg 91%
07:00 +14°C° 0 mm 3 mps 758 mmHg 88%
08:00 +13°C° 0 mm 3 mps 759 mmHg 86%
09:00 +13°C° 0 mm 3 mps 759 mmHg 83%
10:00 +15°C° 0 mm 2 mps 759 mmHg 77%
11:00 +16°C° 0 mm 2 mps 759 mmHg 71%
12:00 +16°C° 0 mm 2 mps 759 mmHg 65%
13:00 +17°C° 0 mm 2 mps 759 mmHg 63%
14:00 +17°C° 0 mm 3 mps 758 mmHg 61%
15:00 +17°C° 0 mm 3 mps 758 mmHg 59%
16:00 +16°C° 0 mm 2 mps 758 mmHg 64%
17:00 +15°C° 0 mm 2 mps 758 mmHg 69%
18:00 +15°C° 0 mm 2 mps 758 mmHg 73%
19:00 +14°C° 0 mm 2 mps 759 mmHg 76%
20:00 +14°C° 0 mm 2 mps 759 mmHg 80%
21:00 +13°C° 0 mm 2 mps 759 mmHg 83%
22:00 +13°C° 0 mm 2 mps 759 mmHg 84%
23:00 +13°C° 0 mm 2 mps 760 mmHg 86%

25 January, Monday

Time Temperature Precipitation Wind Pressure Humidity
00:00 +13°C° 0 mm 2 mps 760 mmHg 88%
01:00 +12°C° 0 mm 1 mps 760 mmHg 88%
02:00 +12°C° 0 mm 1 mps 760 mmHg 88%
03:00 +11°C° 0 mm 1 mps 760 mmHg 88%
04:00 +11°C° 0 mm 1 mps 760 mmHg 89%
05:00 +10°C° 0 mm 1 mps 760 mmHg 89%
06:00 +9°C° 0 mm 0 mps 760 mmHg 89%
07:00 +10°C° 0 mm 0 mps 761 mmHg 87%
08:00 +10°C° 0 mm 0 mps 761 mmHg 85%
09:00 +11°C° 0 mm 0 mps 762 mmHg 82%
10:00 +13°C° 0 mm 1 mps 762 mmHg 76%
11:00 +15°C° 0 mm 1 mps 762 mmHg 70%
12:00 +16°C° 0 mm 1 mps 762 mmHg 65%
13:00 +18°C° 0 mm 1 mps 762 mmHg 63%
14:00 +17°C° 0 mm 2 mps 762 mmHg 60%
15:00 +18°C° 0 mm 2 mps 762 mmHg 58%
16:00 +17°C° 0 mm 2 mps 762 mmHg 65%
17:00 +15°C° 0 mm 2 mps 762 mmHg 72%
18:00 +14°C° 0 mm 2 mps 762 mmHg 79%
19:00 +13°C° 0 mm 2 mps 763 mmHg 81%
20:00 +13°C° 0 mm 2 mps 763 mmHg 83%
21:00 +13°C° 0 mm 1 mps 764 mmHg 86%
22:00 +13°C° 0 mm 1 mps 764 mmHg 86%
23:00 +13°C° 0 mm 1 mps 764 mmHg 86%

26 January, Tuesday

Time Temperature Precipitation Wind Pressure Humidity
00:00 +13°C° 0 mm 1 mps 764 mmHg 87%
01:00 +13°C° 0 mm 1 mps 764 mmHg 87%
02:00 +13°C° 0 mm 1 mps 764 mmHg 88%
03:00 +13°C° 0 mm 1 mps 764 mmHg 89%
04:00 +13°C° 0 mm 1 mps 764 mmHg 89%
05:00 +13°C° 0 mm 1 mps 764 mmHg 90%
06:00 +13°C° 0 mm 1 mps 764 mmHg 90%
07:00 +13°C° 0 mm 1 mps 764 mmHg 89%
08:00 +13°C° 0 mm 1 mps 765 mmHg 88%
09:00 +14°C° 0 mm 1 mps 765 mmHg 88%
10:00 +15°C° 0 mm 1 mps 765 mmHg 86%
11:00 +16°C° 0 mm 1 mps 765 mmHg 84%
12:00 +16°C° 0 mm 1 mps 766 mmHg 81%
13:00 +18°C° 0 mm 1 mps 765 mmHg 79%
14:00 +19°C° 0 mm 1 mps 765 mmHg 77%
15:00 +20°C° 0 mm 1 mps 765 mmHg 74%
16:00 +19°C° 0 mm 1 mps 765 mmHg 78%
17:00 +16°C° 0 mm 0 mps 765 mmHg 82%
18:00 +15°C° 0 mm 0 mps 765 mmHg 86%
19:00 +15°C° 0 mm 0 mps 765 mmHg 87%
20:00 +14°C° 0 mm 0 mps 766 mmHg 89%
21:00 +15°C° 0 mm 1 mps 766 mmHg 90%
22:00 +14°C° 0 mm 1 mps 766 mmHg 91%
23:00 +14°C° 0 mm 1 mps 766 mmHg 91%
Show more